KE7YUP Weather Reports


Display with metric or nautical units.
time (UTC)temp
F
wind
direction
speed
MPH
gust
MPH
rain 1hr
in
rain 24hr
in
rain mn
in
humidity
%
barometer
mb
20200813115017 68 338 5.0 6.0 0.00 0.00 0.00 28 1020.1
20200813114017 68 338 4.0 5.0 0.00 0.00 0.00 27 1020.3
20200813113017 68 23 2.0 2.0 0.00 0.00 0.00 28 1020.2
20200813112017 69 0 2.0 3.0 0.00 0.00 0.00 30 1020.4
20200813111017 68 338 4.0 5.0 0.00 0.00 0.00 32 1020.2
20200813110017 68 0 5.0 6.0 0.00 0.00 0.00 31 1020.0
20200813105017 69 338 4.0 5.0 0.00 0.00 0.00 31 1020.4
20200813104017 69 0 4.0 5.0 0.00 0.00 0.00 31 1020.2
20200813103018 70 45 1.0 2.0 0.00 0.00 0.00 33 1020.2
20200813102017 70 0 3.0 4.0 0.00 0.00 0.00 35 1020.5
20200813101017 71 68 2.0 3.0 0.00 0.00 0.00 35 1020.5
20200813100017 71 68 3.0 5.0 0.00 0.00 0.00 39 1020.5
20200813095017 69 68 2.0 3.0 0.00 0.00 0.00 45 1020.3
20200813094017 69 23 2.0 4.0 0.00 0.00 0.00 50 1020.5
20200813093017 69 23 2.0 3.0 0.00 0.00 0.00 51 1020.7
20200813092016 69 45 2.0 3.0 0.00 0.00 0.00 50 1020.7
20200813091017 70 23 2.0 4.0 0.00 0.00 0.00 43 1020.6
20200813090017 71 0.0 1.0 0.00 0.00 0.00 32 1020.6
20200813085017 71 338 4.0 4.0 0.00 0.00 0.00 28 1020.3
20200813084017 72 338 4.0 5.0 0.00 0.00 0.00 28 1020.4
20200813083017 72 23 3.0 3.0 0.00 0.00 0.00 27 1020.1
20200813082016 72 0.0 2.0 0.00 0.00 0.00 27 1020.1
20200813081016 71 0 5.0 5.0 0.00 0.00 0.00 27 1019.8
20200813080018 71 338 3.0 3.0 0.00 0.00 0.00 28 1020.1
20200813075016 73 248 3.0 8.0 0.00 0.00 0.00 26 1020.5
20200813074016 71 315 11.0 14.0 0.00 0.00 0.00 26 1020.0
20200813073015 73 338 11.0 14.0 0.00 0.00 0.00 26 1019.8
20200813072015 72 270 4.0 8.0 0.00 0.00 0.00 29 1019.9
20200813071016 75 315 3.0 4.0 0.00 0.00 0.00 25 1020.0
20200813070016 75 338 5.0 8.0 0.00 0.00 0.00 25 1020.0
20200813065015 75 23 3.0 5.0 0.00 0.00 0.00 27 1019.9
20200813064015 74 45 2.0 3.0 0.00 0.00 0.00 26 1019.4
20200813063015 74 338 2.0 3.0 0.00 0.00 0.00 26 1019.1
20200813062016 74 23 3.0 4.0 0.00 0.00 0.00 25 1018.7
20200813061016 75 23 1.0 2.0 0.00 0.00 0.00 24 1018.5
20200813060015 76 0.0 1.0 0.00 0.00 0.00 23 1018.8
20200813055016 78 23 4.0 4.0 0.00 0.00 0.00 21 1019.1
20200813054016 80 113 1.0 2.0 0.00 0.00 0.00 21 1019.5
20200813053017 80 315 3.0 5.0 0.00 0.00 0.00 20 1019.1
20200813052017 80 315 9.0 11.0 0.00 0.00 0.00 20 1019.1
20200813051016 79 338 8.0 11.0 0.00 0.00 0.00 21 1019.2
20200813050017 80 315 10.0 14.0 0.00 0.00 0.00 20 1019.4
20200813045016 80 338 6.0 10.0 0.00 0.00 0.00 20 1019.2
20200813044016 80 338 9.0 12.0 0.00 0.00 0.00 21 1019.1
20200813043017 79 293 8.0 11.0 0.00 0.00 0.00 22 1019.3
20200813042016 81 315 11.0 13.0 0.00 0.00 0.00 20 1019.5
20200813041017 81 338 7.0 10.0 0.00 0.00 0.00 20 1019.0
20200813040016 82 68 2.0 3.0 0.00 0.00 0.00 19 1019.1
20200813035016 82 0 1.0 2.0 0.00 0.00 0.00 19 1019.0
20200813034016 83 338 4.0 4.0 0.00 0.00 0.00 19 1018.9
20200813033016 83 0 2.0 3.0 0.00 0.00 0.00 19 1018.9
20200813032016 83 45 5.0 7.0 0.00 0.00 0.00 19 1018.4
20200813031016 83 68 5.0 7.0 0.00 0.00 0.00 19 1018.0
20200813030016 83 0 4.0 5.0 0.00 0.00 0.00 19 1017.8
20200813025016 83 23 8.0 14.0 0.00 0.00 0.00 20 1017.8
20200813024017 83 45 6.0 10.0 0.00 0.00 0.00 20 1017.8
20200813023016 83 45 5.0 8.0 0.00 0.00 0.00 20 1018.1
20200813022016 84 45 8.0 11.0 0.00 0.00 0.00 19 1018.1
20200813021016 84 23 6.0 10.0 0.00 0.00 0.00 19 1018.1
20200813020016 84 23 4.0 9.0 0.00 0.00 0.00 19 1017.7
20200813015016 85 45 7.0 10.0 0.00 0.00 0.00 19 1017.5
20200813014016 85 45 10.0 13.0 0.00 0.00 0.00 19 1017.1
20200813013016 85 45 11.0 13.0 0.00 0.00 0.00 19 1017.2
20200813012016 86 45 10.0 15.0 0.00 0.00 0.00 19 1017.3
20200813011016 85 45 11.0 14.0 0.00 0.00 0.00 19 1017.0
20200813010016 86 45 10.0 13.0 0.00 0.00 0.00 18 1017.2
20200813005016 86 45 11.0 14.0 0.00 0.00 0.00 18 1017.2
20200813004016 87 45 11.0 15.0 0.00 0.00 0.00 17 1016.8
20200813003016 87 23 10.0 14.0 0.00 0.00 0.00 17 1017.1
20200813002016 88 0 8.0 13.0 0.00 0.00 0.00 16 1017.0
20200813001016 88 45 8.0 11.0 0.00 0.00 0.00 16 1017.4
20200813000016 88 45 19.0 22.0 0.00 0.00 0.00 16 1017.2
20200812235017 88 23 13.0 18.0 0.00 0.00 0.00 17 1017.5
20200812234016 88 0 9.0 18.0 0.00 0.00 0.00 16 1017.5
20200812233016 89 68 7.0 10.0 0.00 0.00 0.00 14 1017.4
20200812232016 89 203 3.0 5.0 0.00 0.00 0.00 14 1017.4
20200812231016 89 338 6.0 8.0 0.00 0.00 0.00 16 1017.8
20200812230015 89 270 6.0 9.0 0.00 0.00 0.00 11 1017.6
20200812225015 89 270 14.0 17.0 0.00 0.00 0.00 11 1017.7
20200812224016 89 338 5.0 8.0 0.00 0.00 0.00 11 1017.6
20200812223015 89 293 6.0 9.0 0.00 0.00 0.00 16 1018.2
20200812222016 90 270 14.0 21.0 0.00 0.00 0.00 12 1018.3
20200812221016 90 248 11.0 16.0 0.00 0.00 0.00 11 1018.2
20200812220015 90 248 12.0 15.0 0.00 0.00 0.00 11 1018.3
20200812215016 91 203 9.0 13.0 0.00 0.00 0.00 11 1018.5
20200812214015 90 203 5.0 9.0 0.00 0.00 0.00 12 1018.5
20200812213016 90 203 7.0 11.0 0.00 0.00 0.00 13 1018.7
20200812212016 90 248 13.0 19.0 0.00 0.00 0.00 12 1018.5
20200812211015 89 203 15.0 22.0 0.00 0.00 0.00 13 1018.4
20200812210015 89 270 11.0 14.0 0.00 0.00 0.00 13 1018.5
20200812205016 89 225 10.0 15.0 0.00 0.00 0.00 13 1018.5
20200812204016 88 203 7.0 10.0 0.00 0.00 0.00 14 1018.7
20200812203015 87 23 6.0 9.0 0.00 0.00 0.00 13 1018.8
20200812202015 87 270 15.0 22.0 0.00 0.00 0.00 13 1019.0
20200812201015 86 90 6.0 8.0 0.00 0.00 0.00 13 1018.4
20200812200016 87 203 7.0 11.0 0.00 0.00 0.00 13 1019.0
20200812195015 87 113 9.0 14.0 0.00 0.00 0.00 12 1019.1
20200812194015 87 158 8.0 13.0 0.00 0.00 0.00 12 1019.3
20200812193015 86 113 11.0 18.0 0.00 0.00 0.00 13 1019.0
20200812192015 86 180 8.0 15.0 0.00 0.00 0.00 14 1019.2
20200812191015 86 113 10.0 12.0 0.00 0.00 0.00 15 1019.3
20200812190015 86 135 8.0 11.0 0.00 0.00 0.00 15 1019.7
20200812185015 86 135 8.0 11.0 0.00 0.00 0.00 16 1019.8
20200812184015 85 90 7.0 12.0 0.00 0.00 0.00 17 1019.9
20200812183017 84 90 9.0 14.0 0.00 0.00 0.00 17 1019.6
20200812182017 83 68 14.0 18.0 0.00 0.00 0.00 18 1019.6
20200812181017 83 90 13.0 16.0 0.00 0.00 0.00 18 1020.0
20200812180017 83 90 10.0 15.0 0.00 0.00 0.00 17 1020.2
20200812175017 82 90 11.0 15.0 0.00 0.00 0.00 19 1020.5
20200812174017 82 113 10.0 13.0 0.00 0.00 0.00 22 1020.8
20200812173017 81 90 9.0 12.0 0.00 0.00 0.00 20 1020.4
20200812172017 81 113 6.0 9.0 0.00 0.00 0.00 21 1020.8
20200812171017 81 90 8.0 10.0 0.00 0.00 0.00 20 1020.5
20200812170017 82 135 7.0 10.0 0.00 0.00 0.00 22 1020.7
20200812165017 82 158 6.0 9.0 0.00 0.00 0.00 21 1020.3
20200812164017 82 135 5.0 8.0 0.00 0.00 0.00 19 1020.4
20200812163019 81 158 1.0 2.0 0.00 0.00 0.00 20 1020.4
20200812162016 81 113 3.0 4.0 0.00 0.00 0.00 19 1020.5
20200812161017 80 180 4.0 6.0 0.00 0.00 0.00 18 1020.0
20200812160017 80 158 3.0 6.0 0.00 0.00 0.00 20 1020.2
20200812155017 79 158 3.0 5.0 0.00 0.00 0.00 21 1020.5
20200812154017 78 135 2.0 4.0 0.00 0.00 0.00 24 1020.2
20200812153017 77 135 2.0 3.0 0.00 0.00 0.00 27 1020.3
20200812152017 76 0.0 0.0 0.00 0.00 0.00 29 1020.1
20200812151017 74 135 3.0 4.0 0.00 0.00 0.00 31 1019.6
20200812150017 74 135 2.0 3.0 0.00 0.00 0.00 34 1019.7
20200812145019 74 113 2.0 4.0 0.00 0.00 0.00 30 1019.6
20200812144017 74 113 1.0 2.0 0.00 0.00 0.00 30 1019.5
20200812143017 75 113 3.0 3.0 0.00 0.00 0.00 29 1019.7
20200812142017 75 113 3.0 4.0 0.00 0.00 0.00 28 1019.7
20200812141017 74 0.0 0.0 0.00 0.00 0.00 29 1019.6
20200812140016 73 0.0 0.0 0.00 0.00 0.00 29 1019.3
20200812135017 72 338 2.0 2.0 0.00 0.00 0.00 28 1019.3
20200812134016 70 338 1.0 2.0 0.00 0.00 0.00 29 1018.8
20200812133016 69 338 3.0 3.0 0.00 0.00 0.00 29 1018.8
20200812132016 68 338 2.0 3.0 0.00 0.00 0.00 30 1018.8
20200812131016 68 338 3.0 3.0 0.00 0.00 0.00 30 1018.7
20200812130019 68 338 2.0 2.0 0.00 0.00 0.00 30 1018.6
20200812125016 68 315 3.0 3.0 0.00 0.00 0.00 30 1018.6
20200812124017 67 315 2.0 3.0 0.00 0.00 0.00 31 1018.5
20200812123017 67 338 2.0 3.0 0.00 0.00 0.00 31 1018.4
20200812122016 67 338 1.0 2.0 0.00 0.00 0.00 31 1018.3
20200812121016 68 338 2.0 3.0 0.00 0.00 0.00 32 1018.7
20200812120226 68 338 3.0 4.0 0.00 0.00 0.00 31 1018.8